Dewpoint
64 65 65 64 63 63 62 62 61 61 60 60 60 59 59 59 58 57 55 53 51 50 48 48 47 48 47 48 47 47 47 47 47 46 46 45 45 45 45 44 43 43 44 42 42 41 41 40 40 40 39 38 37 37 37 37 38 39 39 38 38 39 38 37 35 35 37 40 40 38 39 38 31 31 30 33 32 32 35 33 35 35 35 36 36
64 65 64 64 63 63 62 62 61 61 60 60 59 59 58 58 57 55 53 52 51 49 48 48 48 47 47 47 47 47 46 46 46 46 45 45 45 45 44 43 43 42 41 41 41 41 39 38 38 39 39 39 38 35 35 35 35 37 39 38 38 39 39 37 37 35 32 37 36 38 37 37 31 31 32 34 33 35 31 32 33 34 36 35 35
65 64 64 64 63 62 62 61 61 60 60 59 59 58 58 57 55 54 52 51 51 49 49 48 47 47 47 46 46 46 46 46 46 45 45 44 44 44 44 42 41 41 41 41 40 41 41 42 41 41 40 39 39 38 37 35 35 35 37 39 37 38 41 39 37 34 33 33 37 35 36 35 33 30 31 36 36 33 30 32 34 36 37 36 35
65 64 64 63 62 62 61 60 60 60 59 59 58 57 57 56 55 53 52 51 50 50 49 47 47 46 46 46 45 45 46 46 45 44 44 44 43 43 43 42 42 41 41 41 41 41 40 40 40 40 40 38 38 37 37 36 36 36 36 38 37 38 40 39 38 34 34 34 35 36 36 33 33 32 33 34 33 32 31 34 35 35 34 35 34
64 64 63 63 62 61 60 60 59 59 58 58 57 56 56 55 54 53 52 51 50 50 49 47 46 45 46 45 45 45 45 45 44 44 44 43 42 43 42 42 41 41 41 42 46 41 42 41 40 39 38 37 38 37 36 35 36 36 35 37 37 38 38 38 37 36 34 34 35 36 36 34 35 33 35 33 32 31 33 33 34 34 34 34 36
64 63 63 62 61 61 60 59 59 58 58 57 57 56 55 54 53 53 52 51 50 49 47 46 45 45 45 45 44 45 45 44 44 44 43 43 43 42 42 41 41 42 42 43 43 43 41 40 39 38 37 37 37 38 37 35 35 34 34 35 36 35 34 35 36 35 34 35 34 34 35 34 32 32 31 34 32 31 31 33 33 33 33 33 34
63 63 62 62 61 60 60 59 58 58 57 57 56 56 55 54 53 53 52 51 50 48 46 45 45 44 44 44 45 45 44 44 44 43 43 42 42 42 42 42 42 43 43 43 41 40 38 38 37 38 36 36 36 36 35 35 35 36 37 35 34 33 33 34 34 33 34 35 34 34 34 35 33 30 31 34 33 32 32 33 33 33 34 34 34
63 62 62 61 61 60 60 59 58 57 57 56 56 55 55 54 53 53 52 50 49 47 46 45 44 44 44 44 45 45 44 43 43 43 42 42 42 42 42 42 42 42 41 40 38 37 37 38 37 36 35 36 36 35 33 33 33 33 35 34 33 31 32 33 32 32 33 34 33 33 33 33 33 34 37 33 31 32 35 34 33 33 33 34 34
62 62 62 61 60 60 59 58 57 57 56 56 55 55 55 54 53 53 51 50 49 47 46 44 44 43 43 44 44 44 44 44 43 42 42 42 43 42 42 42 42 41 39 37 36 37 36 34 32 32 40 42 43 42 40 37 31 30 34 34 33 30 30 31 33 31 31 32 32 34 33 32 32 32 32 31 31 31 34 34 34 34 34 34 33
62 61 61 61 60 60 59 58 57 56 56 55 55 54 54 54 53 51 50 49 48 46 45 44 43 42 43 43 44 44 44 44 46 46 45 43 42 42 42 42 41 39 38 37 36 33 30 30 40 41 41 43 43 43 42 42 40 33 33 33 31 29 29 29 30 32 31 29 31 31 31 31 31 32 31 32 33 34 35 35 34 33 33 33 33
61 61 60 60 60 59 57 57 56 55 55 55 54 54 54 54 52 51 49 48 47 46 44 42 42 42 42 43 43 43 44 44 44 41 41 44 43 42 42 42 41 39 38 35 32 32 34 37 39 40 40 41 36 37 36 36 37 39 40 43 43 30 27 28 30 29 33 29 31 31 30 30 31 32 32 33 34 34 35 36 34 34 32 31 31
61 61 60 60 59 58 57 56 56 55 55 54 54 54 54 53 51 50 49 48 47 45 43 42 42 42 42 42 42 43 43 45 40 40 41 41 43 43 42 43 42 39 36 33 33 33 35 37 38 40 35 32 33 33 38 38 37 37 37 37 37 36 40 33 34 27 29 27 28 29 30 30 31 32 33 33 34 36 36 36 33 31 32 32 32
61 60 60 59 58 57 56 55 55 55 54 54 54 54 54 52 51 50 49 48 46 44 42 42 41 41 42 41 42 43 42 42 40 40 40 40 41 43 43 43 41 38 36 34 33 33 35 37 39 40 39 40 44 36 35 38 40 40 40 40 40 37 34 33 37 33 31 28 29 30 31 31 32 33 36 35 36 35 36 35 34 33 32 32 33
60 60 59 58 57 57 56 55 55 54 54 54 54 54 53 51 51 50 49 47 45 43 42 41 41 41 41 41 42 42 42 42 39 40 40 40 40 41 42 42 41 39 37 35 33 32 34 36 38 39 40 44 41 38 36 36 37 38 38 37 36 39 40 38 35 36 39 33 30 29 32 36 34 35 36 36 36 37 36 35 34 33 33 34 34
60 59 59 58 57 56 56 55 54 54 54 54 53 53 52 51 50 49 48 46 44 43 41 40 41 41 42 41 41 41 41 40 39 39 39 39 39 41 42 42 42 40 38 36 34 32 33 37 39 39 40 41 40 39 37 36 36 37 36 37 38 38 37 36 37 36 36 35 32 31 31 34 34 35 36 37 37 37 37 35 35 34 35 36 34
59 59 58 57 56 56 55 54 54 54 53 53 53 52 51 50 50 49 48 46 45 43 42 41 41 41 42 40 40 39 41 39 39 39 39 39 39 42 41 41 41 41 39 38 35 32 32 37 39 39 37 37 41 39 38 35 33 33 34 36 37 38 38 44 39 38 38 35 34 34 34 35 37 38 38 38 37 37 38 38 37 35 34 32 29
59 58 57 57 56 55 55 54 54 53 53 53 52 51 51 50 49 49 48 46 44 43 42 42 42 41 41 40 39 39 39 39 38 39 39 38 40 41 41 41 41 42 40 40 37 35 36 38 39 38 35 33 37 34 36 35 31 34 36 36 38 34 33 36 40 38 38 38 38 38 37 37 38 37 37 38 38 36 34 33 31 33 33 30 31
58 58 57 56 55 55 54 54 53 53 53 52 52 51 50 50 49 48 47 46 44 43 43 42 42 41 40 39 39 39 39 39 38 39 39 39 41 41 42 42 43 42 43 44 40 38 39 45 43 36 31 30 35 33 35 36 33 36 37 36 34 30 30 33 33 34 36 36 36 37 37 37 37 38 39 40 38 40 32 31 32 33 32 31 30
58 57 57 56 55 55 54 54 53 53 52 52 52 51 50 50 49 48 48 46 45 45 44 43 42 42 40 39 44 40 39 39 38 38 38 39 41 44 44 44 44 43 42 42 41 40 42 47 46 38 33 33 33 33 35 36 34 36 37 35 34 31 30 31 30 30 31 31 31 34 34 37 38 38 41 41 39 42 37 34 35 33 31 32 32
58 57 56 56 55 54 54 53 53 53 52 52 52 51 50 50 48 48 47 46 45 45 44 43 42 41 41 40 42 40 39 39 39 37 38 39 40 43 43 43 41 41 40 40 41 40 43 43 43 36 34 33 31 33 35 35 33 36 35 32 30 29 32 30 35 32 31 32 31 34 36 36 36 36 36 36 38 44 38 37 36 35 33 31 33
57 57 56 55 54 54 54 54 53 53 52 52 52 51 51 50 48 47 47 46 46 46 45 44 43 42 41 43 43 39 40 39 39 37 38 39 39 41 42 41 40 40 40 40 40 39 37 39 39 36 33 31 31 33 34 34 36 36 35 32 31 31 33 31 36 36 32 35 34 35 35 36 35 35 36 35 37 37 38 37 38 36 34 33 31
56 56 55 54 54 53 53 53 53 53 52 52 51 51 51 50 48 48 47 46 46 46 45 44 43 43 42 42 42 40 42 42 39 37 37 38 39 40 41 42 41 40 39 39 39 38 37 35 35 36 32 30 30 31 32 33 35 37 35 34 33 32 34 37 33 32 32 33 33 33 34 35 35 35 36 37 36 38 37 37 36 35 36 35 33
55 55 54 54 53 53 52 52 52 53 52 51 51 51 50 49 48 47 46 46 46 45 45 44 43 43 42 42 41 41 40 42 39 38 37 37 38 39 39 40 39 42 39 39 38 39 37 35 35 36 31 30 30 31 31 32 34 31 33 35 33 33 35 33 30 31 30 31 34 33 33 34 34 34 34 34 34 35 36 36 35 35 36 36 37
55 54 53 53 53 52 52 52 52 52 51 51 51 51 49 48 48 47 46 46 45 45 45 44 43 43 42 42 42 40 40 40 39 38 38 36 37 38 38 38 38 40 40 37 35 34 35 35 35 35 32 30 30 30 31 31 28 30 32 33 33 33 34 30 29 30 31 31 31 31 32 33 34 34 34 35 34 35 37 36 35 34 35 35 35
54 53 53 53 53 52 52 52 52 52 52 51 51 50 49 48 47 46 46 45 45 44 45 44 44 45 43 43 43 42 40 39 38 38 37 37 36 36 36 36 36 36 36 35 34 34 34 34 35 35 32 31 30 31 31 31 30 30 31 32 34 30 29 27 27 29 28 28 30 32 33 33 33 33 34 35 36 37 35 35 34 34 34 34 34
53 53 53 53 53 53 52 52 52 52 51 51 50 50 49 48 47 46 45 45 44 44 44 44 43 43 43 43 43 43 41 39 38 38 39 38 37 36 36 36 37 37 38 39 37 34 34 34 34 35 34 31 30 27 26 28 31 31 31 33 33 29 28 27 27 29 28 29 31 31 31 33 33 34 35 36 35 33 33 33 33 32 34 34 32
52 53 53 53 53 52 52 51 51 51 51 51 51 51 50 48 47 45 45 44 44 44 43 43 43 43 43 44 44 44 43 41 40 37 36 37 37 37 36 37 38 37 38 38 35 34 34 35 35 35 33 32 30 30 29 30 31 31 30 31 30 28 28 27 27 29 31 31 31 31 32 33 34 34 32 32 32 33 33 33 33 32 34 33 32
53 53 53 53 52 52 51 45 48 50 50 50 49 48 47 47 46 45 44 44 43 43 42 42 42 43 44 44 43 43 43 42 41 39 36 36 37 38 36 37 36 36 36 36 35 36 34 34 33 33 32 31 29 30 29 31 30 28 28 29 30 33 36 37 36 33 32 31 31 32 32 33 32 31 32 32 33 33 34 33 32 31 33 32 30
53 53 52 51 51 50 49 48 49 49 49 49 49 48 46 45 45 44 43 44 44 43 43 42 43 46 45 45 45 43 42 42 42 39 37 35 35 35 35 35 35 35 37 36 37 34 30 29 29 29 27 26 26 26 25 27 28 30 32 32 32 32 33 34 33 32 32 32 32 32 31 32 31 32 32 32 32 32 33 32 32 32 32 30 29
52 51 50 50 49 48 48 48 48 47 47 46 45 43 37 41 43 43 42 41 40 40 40 43 45 45 45 44 43 42 43 43 40 39 37 35 34 34 34 35 35 35 36 35 36 32 28 26 27 27 26 25 23 23 24 24 25 25 28 30 30 29 28 29 29 29 30 31 32 32 31 31 31 30 30 31 31 32 32 32 31 31 30 29 29
49 49 48 48 46 47 47 47 46 45 45 44 43 42 41 40 37 38 39 38 38 38 38 40 40 40 43 43 42 40 40 40 39 39 38 36 34 34 33 34 35 35 35 34 33 33 30 26 27 27 27 27 26 26 26 26 28 27 27 29 30 30 30 30 30 30 30 30 31 32 32 31 30 29 29 30 31 31 32 31 31 31 30 30 29
48 47 47 46 45 45 47 46 45 45 44 43 42 41 41 41 41 37 36 37 37 38 38 38 38 38 39 41 42 40 38 39 39 38 38 37 35 34 34 34 34 35 35 35 33 33 33 30 28 28 27 28 28 28 28 28 28 28 29 29 29 30 31 30 31 31 31 31 31 31 31 30 29 29 29 30 29 31 31 30 30 29 30 30 30
48 47 46 45 45 44 45 44 44 44 44 42 42 42 42 41 41 41 38 35 35 36 37 38 38 38 38 38 38 38 38 39 38 38 39 38 36 35 34 34 34 35 35 34 32 32 33 33 31 29 29 29 27 28 28 29 29 29 29 28 29 29 30 31 30 32 31 32 31 31 30 30 30 30 29 29 28 29 29 28 29 29 30 29 30
48 47 45 45 45 45 45 44 44 44 44 43 43 42 42 42 42 40 38 36 37 35 34 35 36 37 38 38 37 37 37 38 38 38 38 38 37 35 35 34 34 35 34 33 32 32 33 34 34 33 31 30 29 29 29 29 29 29 29 30 30 31 31 31 30 30 30 31 31 30 30 29 29 29 30 29 29 28 28 29 29 28 29 29 29
48 43 39 42 45 45 45 44 44 45 45 44 43 43 43 42 40 39 39 38 37 37 38 37 36 36 38 36 36 36 37 38 38 38 38 38 37 36 35 34 33 33 34 34 33 32 32 33 33 33 33 33 32 31 30 31 30 31 31 31 31 31 31 30 31 31 31 31 31 30 30 30 30 30 30 30 29 28 29 30 30 29 29 29 29
47 45 44 45 45 45 45 45 45 45 45 45 45 43 42 40 39 38 38 37 38 36 36 35 35 35 35 35 35 35 36 37 37 38 37 37 37 35 34 34 34 34 33 34 33 32 32 32 32 33 33 33 33 33 32 31 32 32 32 31 31 30 30 30 31 31 32 31 31 31 31 30 31 31 30 29 29 29 29 30 30 29 30 30 30
46 45 45 45 45 45 45 45 45 45 43 43 43 44 43 40 39 39 39 39 38 38 35 34 34 35 34 35 35 35 35 36 37 37 37 37 36 36 38 36 35 34 34 34 33 33 32 31 31 31 32 32 32 31 31 32 32 33 34 34 33 33 32 31 31 31 30 30 31 31 31 31 31 30 30 29 29 30 30 29 29 30 30 30 29
46 46 45 45 45 45 45 45 45 40 43 44 44 43 41 41 40 39 37 37 36 36 34 33 34 33 32 35 39 35 34 35 35 35 36 36 34 35 37 36 35 34 34 34 34 33 33 32 31 30 29 30 31 31 31 31 32 33 33 32 32 32 33 32 30 30 29 30 29 30 29 30 29 29 29 29 29 29 30 30 29 29 30 30 29
47 42 40 40 41 45 45 44 44 44 44 44 44 43 41 41 39 38 38 37 36 36 34 34 33 32 32 33 34 36 33 33 33 33 33 34 34 35 35 34 33 33 33 32 32 32 32 32 31 31 30 30 29 29 30 30 31 30 31 30 30 30 30 31 31 31 30 30 30 30 30 30 30 30 30 29 29 30 30 30 30 30 29 29 29
47 45 41 39 43 43 44 44 44 44 43 44 45 44 42 40 40 39 38 38 37 36 35 34 33 32 33 34 34 34 33 33 32 32 32 32 32 33 33 32 31 31 31 33 33 33 32 31 31 31 31 30 30 29 30 29 30 30 29 30 30 29 30 31 31 31 31 31 31 31 31 30 30 30 29 30 30 30 30 29 30 30 30 29 30
47 45 40 41 42 44 44 44 43 44 44 43 45 44 43 42 41 40 39 39 38 37 37 35 34 34 34 33 34 33 32 32 31 31 31 31 31 31 31 32 31 31 30 31 31 32 32 33 31 31 31 30 30 29 28 28 28 28 28 29 29 29 29 30 31 31 31 31 31 31 30 30 30 29 29 30 31 31 30 30 30 30 30 30 30
47 44 44 44 43 44 44 43 44 43 44 44 45 45 44 42 42 41 40 39 37 37 38 38 37 35 35 34 34 33 31 31 31 31 31 31 30 30 31 30 31 31 32 33 32 31 32 31 31 30 30 30 29 30 29 28 27 28 28 29 28 28 28 28 29 31 31 31 31 31 30 31 30 30 30 32 30 30 30 30 30 30 29 30 30
47 45 45 44 44 45 44 45 44 45 45 45 45 42 43 43 44 43 40 40 39 38 38 39 39 38 36 34 33 33 31 31 30 31 31 31 31 30 30 30 30 30 31 32 32 31 32 32 31 30 31 31 30 29 30 29 29 29 29 29 29 29 29 30 31 31 31 31 31 31 31 31 31 30 30 30 30 30 30 30 30 29 30 29 29
45 45 44 44 44 44 43 44 44 43 44 43 43 44 43 45 45 44 43 41 40 38 39 39 39 39 38 34 33 32 31 31 31 30 30 31 32 31 31 30 30 30 30 29 30 31 30 31 31 31 31 31 29 31 31 30 30 29 29 30 30 30 31 31 31 31 31 31 31 31 31 31 31 30 31 31 30 30 30 30 30 30 30 30 29
46 45 44 44 44 44 43 41 43 42 41 41 44 45 43 46 45 45 43 42 39 39 39 39 39 39 37 37 35 33 32 32 33 33 32 31 31 31 31 30 30 30 29 29 28 29 29 29 29 30 30 32 31 30 30 30 30 29 30 31 31 31 31 31 31 31 31 31 31 31 31 31 31 30 30 31 31 30 30 30 30 30 30 30 29
46 45 44 44 43 42 42 42 38 41 41 43 44 44 44 45 45 44 44 43 42 41 41 41 40 40 38 38 37 35 34 34 34 35 35 34 34 33 33 32 31 29 28 28 29 30 30 29 29 29 29 29 29 29 30 31 30 30 31 32 31 31 32 32 32 31 31 31 31 31 31 30 31 31 31 30 30 31 30 30 30 31 31 30 29
45 45 44 44 44 42 42 41 40 39 41 41 42 42 43 43 43 42 41 43 43 41 41 41 40 39 39 38 37 37 36 35 36 36 35 35 35 35 35 35 34 33 31 30 30 31 33 32 31 30 30 30 30 30 30 30 29 30 30 33 33 33 33 32 32 32 32 32 32 31 31 31 31 31 31 31 31 31 31 31 31 31 30 29 28
45 44 44 43 43 42 41 41 40 38 39 40 40 40 39 39 41 41 42 42 42 41 41 40 39 39 38 38 37 37 36 36 36 36 36 36 36 35 35 35 34 34 34 34 33 33 33 34 34 34 33 33 32 33 33 33 32 34 33 34 34 33 33 33 35 34 33 33 32 32 32 31 31 31 31 31 31 31 31 31 31 30 29 28 28
44 44 44 43 43 42 41 40 40 40 41 41 39 40 39 40 40 40 40 41 42 41 41 40 39 38 37 37 37 37 36 36 37 37 36 36 34 34 35 35 34 35 34 34 34 35 35 35 35 35 35 34 34 34 33 33 34 33 33 33 32 30 30 31 31 31 31 31 32 31 31 31 31 31 31 31 31 31 31 31 31 30 29 29 29
44 43 43 43 42 42 41 41 40 41 40 40 40 40 39 39 38 39 40 39 40 40 40 40 39 37 36 36 36 36 36 36 36 36 36 35 33 33 34 35 35 34 34 34 34 34 35 35 36 35 35 35 35 35 34 34 34 32 31 31 29 28 28 29 29 29 30 29 30 31 31 31 31 31 31 31 31 31 31 30 30 29 29 29 27
43 44 43 43 43 42 41 41 40 40 41 40 40 40 39 38 39 39 38 39 39 38 38 39 39 38 37 36 35 36 36 36 36 36 36 35 34 33 34 34 34 34 34 34 35 35 35 35 35 35 35 34 33 34 33 33 31 30 29 28 27 28 28 28 29 27 28 29 29 31 31 31 31 30 30 30 30 30 30 29 29 28 26 25 24